Location: Eyeline Observatory
(43.2182°N, 78.8632°W)
Time: 17:28:09
(UTC-05:00)

OTV 5 (USA 277) - Pass Details

Date: 08 October 2017
Orbit: 404 x 417 km, 43.0° (Epoch: 07 September)

Event Time Altitude Azimuth Distance (km) Brightness Sun altitude
Rises 19:48:14 0° 204° (SSW) 2,342 ? -12.5°
Reaches altitude 10° 19:51:08 10° 177° (S) 1,483 ? -13.1°
Maximum altitude 19:52:52 13° 146° (SE) 1,293 ? -13.4°
Enters shadow 19:52:56 13° 144° (SE) 1,294 ? -13.4°
